{"data":{"norad_id":63503,"epoch":"2026-05-25T00:19:37.356384Z","epoch_age_seconds":87967,"freshness":"FRESH","line1":"1 63503U 25071L   26145.01362681  .00051932  00000+0  11937-2 0  9999","line2":"2 63503  53.1587 145.5282 0001562  97.4609 262.6574 15.42185205 64469","mean_motion":15.42185205,"eccentricity":0.0001562,"inclination_deg":53.1587,"raan_deg":145.5282,"arg_perigee_deg":97.4609,"mean_anomaly_deg":262.6574,"bstar":0.0011937,"rev_number":6446,"period_min":93.373999136504,"perigee_km":438.5964272491,"apogee_km":440.72630745906,"semimajor_km":6817.7983673541,"source":"CELESTRAK","updated_at":"2026-05-25T13:38:20.013672Z"}}